Location: Cahas Mountain Overlook
(37.0833°N, 80.1000°W)
Time: 10:44:49
(UTC-04:00)

Vanguard 1 Rocket - Pass Details

Date: 08 February 2026
Orbit: 653 x 4214 km, 34.3° (Epoch: 15 March)

Event Time Altitude Azimuth Distance (km) Brightness Sun altitude
Rises 21:03:37 0° 285° (WNW) 7,563 13.0 -38.3°
Reaches altitude 10° 21:08:20 10° 282° (WNW) 6,850 12.5 -39.3°
Maximum altitude 21:32:33 59° 211° (SSW) 4,552 10.7 -43.9°
Enters shadow 21:40:03 49° 167° (SSE) 4,700 10.6 -45.4°
